SCP
0 0 0 0 0 0 0 0 0 1 1 1 1 1 1 1 1 1 1 1 1 1 1 1 1 1 1 1 1 1 1 1 1 1 1 1 1 1 1 1 1 1 1 1
0 0 0 0 0 0 0 0 1 1 1 1 1 1 1 1 1 1 1 1 1 1 1 1 1 1 1 1 2 2 2 1 1 1 1 1 1 1 1 1 1 1 1 1
0 0 0 0 0 0 0 0 0 1 1 1 1 1 1 1 1 1 1 1 1 1 1 1 2 2 1 2 3 3 3 2 1 1 1 1 1 1 1 1 1 1 1 1
0 0 0 0 0 0 0 0 0 1 1 1 1 1 1 1 1 1 1 1 1 1 2 2 3 3 3 3 3 3 3 2 1 1 1 1 1 1 1 1 1 1 1 1
0 0 0 0 0 0 0 0 1 1 1 0 0 0 1 1 1 2 2 2 1 2 2 3 4 4 4 4 3 3 2 2 1 1 1 1 1 1 1 1 1 1 1 1
0 0 0 0 0 0 0 0 0 1 0 0 0 0 1 1 1 2 2 2 2 1 2 2 3 4 4 3 3 2 2 2 2 2 1 1 1 1 1 1 1 1 1 1
0 0 0 0 0 0 0 0 0 0 0 0 0 0 1 1 2 2 2 2 2 1 1 2 2 3 3 3 3 3 3 3 2 2 1 1 1 1 1 1 1 2 2 1
0 0 0 0 0 0 0 0 0 0 0 0 0 1 1 2 2 2 2 2 2 1 2 2 3 3 3 3 3 3 3 3 3 2 2 2 1 1 1 1 2 2 1 1
0 0 0 0 0 0 0 0 0 0 0 0 0 1 1 2 2 1 1 2 2 2 2 2 2 2 3 3 3 3 3 4 3 3 2 2 2 2 1 2 2 2 1 1
0 0 0 0 0 0 0 0 0 0 0 0 0 1 1 2 1 1 1 2 2 2 2 2 2 2 2 2 2 3 4 4 3 3 3 2 2 2 2 2 1 1 1 1
0 0 0 0 0 0 0 0 0 0 0 0 0 0 1 1 1 1 1 2 2 2 2 2 2 2 2 2 2 3 4 4 4 3 3 3 2 2 2 2 1 1 1 1
0 0 0 0 0 0 0 0 0 0 0 0 0 0 1 1 1 2 2 2 2 2 2 3 3 3 3 3 4 4 5 4 4 4 4 3 2 2 2 1 1 1 2 2
0 0 0 0 0 0 0 0 0 0 0 0 0 0 1 1 2 2 3 3 3 3 4 5 6 6 6 6 6 6 5 4 4 3 3 2 2 2 1 1 2 2 2 2
0 0 0 0 0 0 0 0 0 0 0 0 0 0 1 1 2 3 3 3 3 4 6 8 9 10 10 10 9 7 5 4 3 3 2 2 2 2 2 2 2 2 2 3
0 0 0 0 0 0 0 0 0 0 0 0 0 0 1 1 2 3 4 3 3 5 7 9 11 12 13 11 9 6 4 3 3 3 3 3 2 2 2 2 2 2 3 3
0 0 0 0 0 0 0 0 0 0 0 0 0 1 1 2 3 4 4 4 4 5 8 10 12 12 12 10 7 5 4 4 4 3 4 4 4 3 3 2 3 3 3 3
1 0 0 0 0 0 0 0 0 0 0 1 1 2 2 2 3 4 4 4 3 4 7 10 11 11 9 8 5 4 4 4 4 4 4 5 4 4 3 3 4 4 4 4
1 1 0 0 0 0 0 0 1 1 1 1 2 2 2 2 3 3 3 3 3 4 7 9 9 8 7 6 5 4 4 4 4 5 5 5 4 4 4 4 5 5 5 5
1 1 1 0 0 0 0 1 1 1 1 1 2 2 2 2 2 2 3 3 4 5 7 7 6 6 5 5 5 4 4 4 4 5 5 5 4 4 4 4 5 6 5 5
1 1 1 0 0 0 1 1 1 1 1 1 1 2 2 2 2 2 2 3 5 6 6 5 5 5 5 5 5 5 4 4 4 4 4 4 4 4 4 4 5 5 5 5
1 1 1 0 0 0 1 1 1 1 1 1 1 2 2 2 2 3 4 4 5 5 4 4 4 4 4 4 4 4 4 4 3 3 3 3 4 4 4 4 4 5 5 5
1 1 1 1 0 1 1 1 1 1 1 1 1 1 2 2 3 4 5 5 5 5 4 4 4 4 4 3 4 4 4 4 3 3 4 4 4 4 4 4 5 5 6 6
1 1 1 1 1 1 1 1 1 1 1 1 1 1 2 3 4 5 5 5 5 6 6 5 5 4 4 3 4 4 4 4 4 4 4 4 4 4 4 5 5 6 6 6
2 2 2 2 2 2 1 1 1 1 1 1 1 2 2 3 3 4 4 4 5 7 6 5 5 4 4 3 3 3 3 3 3 4 4 3 3 3 3 4 4 6 6 5
1 2 2 2 2 2 2 2 1 1 1 1 1 2 2 2 3 3 3 4 4 5 5 4 4 3 3 3 2 2 2 2 3 3 2 2 2 2 2 2 3 3 3 3
1 1 2 2 2 2 2 2 2 2 2 1 1 2 2 2 3 4 4 3 3 3 3 3 3 2 2 2 2 2 2 2 2 2 2 1 1 1 1 1 1 1 1 1
Wind_Speed
4 6 2 1 3 4 4 4 3 2 1 4 3 2 4 5 6 6 6 6 6 5 5 4 4 3 3 2 2 2 1 0 1 1 2 1 1 1 1 0 1 1 1 1
7 5 0 1 2 4 4 4 2 1 1 4 3 3 4 6 6 5 6 6 5 5 5 5 4 3 3 2 2 3 2 0 1 1 1 2 2 2 1 1 1 1 1 1
7 1 1 4 4 5 4 4 4 2 2 5 5 6 6 7 6 6 6 6 6 5 5 6 5 4 3 3 2 2 1 1 1 1 1 1 1 1 1 1 0 1 1 1
5 2 4 6 4 5 3 3 4 3 5 1 3 4 5 6 7 7 6 6 6 6 5 5 5 5 4 3 3 2 2 1 0 0 1 2 2 1 1 2 1 1 1 1
4 3 5 5 2 4 3 2 4 5 6 5 3 6 3 5 4 5 5 6 6 6 5 5 5 4 4 3 3 3 2 1 1 0 0 2 2 2 1 1 1 1 1 1
4 3 4 3 1 1 2 4 5 7 7 5 1 5 1 3 1 2 4 5 5 5 5 5 5 5 4 4 3 3 3 2 1 0 0 1 2 2 3 2 1 1 0 1
7 7 5 4 5 5 7 7 5 5 4 1 2 4 3 5 2 1 3 5 5 5 5 5 6 6 5 4 3 3 3 2 1 1 0 1 1 2 2 2 1 2 1 1
8 7 6 5 6 5 6 8 7 7 6 3 3 3 5 4 3 2 4 5 6 6 5 5 6 6 5 5 4 3 3 2 1 1 0 0 1 2 1 1 2 1 2 2
6 5 5 3 2 5 5 6 7 8 8 7 2 1 4 3 4 4 5 6 7 7 6 6 6 6 6 5 5 4 4 2 1 1 1 1 0 1 2 1 1 1 1 1
6 5 5 5 5 2 5 5 5 7 6 7 3 3 1 2 3 4 5 5 7 7 6 6 5 5 5 5 5 4 4 3 2 2 1 1 1 0 1 1 1 1 1 1
8 7 6 7 6 4 5 6 5 6 6 8 6 2 5 2 2 2 4 5 6 7 6 6 5 5 5 5 5 4 4 3 2 1 1 1 1 0 0 1 1 1 0 0
6 7 6 5 3 3 7 6 7 7 6 7 8 1 5 2 3 3 3 5 6 6 6 6 6 5 5 4 4 4 4 3 2 2 1 1 1 1 0 1 1 1 0 0
5 8 8 8 9 7 6 6 8 9 8 7 9 0 5 3 3 3 4 5 6 6 6 6 6 5 4 4 4 3 3 3 2 2 2 1 1 1 0 1 1 1 1 1
5 8 9 8 4 3 6 7 7 10 8 8 7 5 1 2 2 3 4 5 6 6 6 5 5 5 4 4 3 3 2 2 2 2 2 2 1 1 0 0 1 1 1 1
6 8 7 7 5 6 7 8 8 9 10 10 7 7 4 2 2 2 4 5 5 6 5 5 4 5 4 4 4 3 2 2 2 2 1 1 1 1 0 0 1 1 1 1
5 6 7 8 7 7 9 9 9 8 9 9 9 7 2 1 2 3 4 6 6 6 6 5 5 5 5 4 4 3 3 2 2 2 1 1 0 1 0 0 0 0 1 1
6 6 7 8 5 9 10 7 7 8 7 8 9 5 1 2 4 4 5 5 6 6 6 6 5 5 4 4 4 3 3 2 2 2 1 1 0 0 0 1 0 1 1 1
6 7 6 6 6 10 2 1 5 7 7 7 6 4 3 3 3 4 4 5 6 6 6 5 5 5 4 4 4 4 3 3 2 1 1 0 1 1 1 1 1 1 1 1
6 7 7 7 9 8 4 3 4 6 6 5 5 4 3 2 4 5 4 4 5 5 5 5 4 4 4 4 5 4 3 3 2 1 1 0 0 1 1 1 1 1 1 2
5 7 8 7 9 8 1 2 2 6 7 1 3 3 3 4 6 3 6 4 5 5 5 5 5 5 5 4 4 4 3 2 2 2 1 1 1 1 1 1 2 2 2 3
8 7 9 9 9 5 3 2 3 7 2 2 3 3 4 4 3 4 6 5 5 5 6 5 5 4 4 4 4 3 2 2 2 1 1 1 1 1 1 1 2 2 2 3
7 7 7 8 10 4 4 2 3 4 5 4 3 3 3 1 3 4 5 6 6 6 6 5 5 4 4 4 3 3 2 1 1 1 1 1 1 2 1 1 2 2 3 3
5 4 4 4 3 3 1 2 3 5 5 4 3 2 2 3 3 4 5 6 6 5 5 5 5 4 4 3 3 2 1 1 0 0 0 0 1 1 2 2 2 2 2 3
4 1 3 4 3 1 2 3 4 4 4 4 3 2 3 3 4 4 5 5 5 5 5 5 5 5 4 3 2 2 1 1 1 1 1 2 2 2 1 2 2 2 2 2
2 3 4 5 3 3 2 3 3 3 3 3 2 2 3 3 4 4 5 5 5 5 4 4 5 4 4 3 2 1 1 1 2 2 2 3 2 1 1 1 2 3 2 3
4 5 6 4 1 4 3 3 4 3 2 1 1 2 2 3 4 5 4 4 4 4 4 4 4 4 4 4 3 1 1 2 2 3 3 2 2 1 2 2 1 1 1 1
Wind_Direction
209 235 231 327 298 317 308 300 310 17 92 243 243 215 167 173 188 183 177 178 176 174 159 160 160 159 158 160 164 169 229 335 285 297 300 295 286 297 330 340 13 312 294 282
216 220 273 285 268 269 272 275 299 105 137 261 253 229 179 182 192 193 189 187 186 182 174 175 177 177 171 166 175 171 176 184 283 346 318 315 314 302 335 356 15 326 309 294
249 52 140 240 233 251 260 296 319 315 208 218 249 201 182 181 191 193 197 194 192 190 192 186 185 188 178 169 167 152 131 122 8 334 287 300 263 273 309 332 352 0 333 301
237 209 237 247 245 272 277 332 290 253 247 222 272 290 153 175 185 193 197 194 193 186 186 184 185 185 182 172 159 145 140 129 104 238 306 299 307 322 337 322 1 347 340 319
218 216 237 248 283 284 332 309 258 256 267 273 233 283 116 160 195 185 189 190 189 183 179 179 177 171 170 163 157 147 144 142 154 237 236 276 305 314 330 338 22 325 347 313
243 210 247 266 270 232 198 218 219 232 253 265 320 283 356 108 156 156 164 172 178 175 171 173 169 165 165 161 157 150 143 145 159 194 344 310 319 331 342 337 338 296 322 330
209 204 196 215 216 198 232 255 257 250 240 292 92 270 20 54 60 125 151 156 161 163 163 162 164 163 160 158 154 141 133 142 160 174 240 281 297 292 305 309 315 318 346 6
222 207 188 205 246 253 245 272 286 302 310 318 183 273 60 66 79 122 144 147 150 155 153 157 159 161 160 161 154 139 134 139 139 141 158 271 273 277 296 316 327 335 343 14
238 213 160 180 240 266 248 255 291 286 281 280 280 162 125 117 119 124 136 143 146 149 151 153 153 156 160 161 153 153 147 146 145 130 130 120 336 331 334 319 300 18 28 9
250 239 186 172 194 194 290 288 261 275 293 289 276 257 63 125 131 138 145 150 147 147 147 145 145 148 150 151 147 149 146 154 163 157 169 131 146 214 275 302 19 24 13 6
246 244 204 198 227 235 209 226 258 274 288 293 299 20 48 88 125 151 151 147 148 148 145 142 139 142 144 143 142 147 149 153 149 135 124 77 82 79 46 43 52 78 21 326
231 251 246 219 180 260 251 258 252 266 273 273 288 11 73 91 135 135 134 136 141 145 145 142 139 141 145 147 146 150 155 152 146 136 140 128 109 91 63 59 22 20 42 331
205 244 240 217 191 191 226 246 258 269 270 267 276 1 105 124 141 143 141 145 146 151 150 148 142 141 146 146 147 152 159 148 142 136 138 116 98 94 75 44 10 346 319 330
242 247 255 267 284 242 232 234 246 263 265 269 273 293 235 195 188 168 161 158 156 151 154 155 151 146 144 147 146 151 148 138 135 137 128 109 83 57 22 31 347 334 330 341
243 243 250 267 274 259 257 256 247 254 271 283 290 288 291 245 226 191 175 167 166 161 160 157 155 141 143 142 143 141 131 133 133 143 132 106 86 69 39 42 22 14 351 350
241 251 243 246 243 250 255 253 248 251 259 267 275 283 306 242 198 195 190 180 178 173 169 162 158 151 149 145 145 143 144 138 144 152 141 108 99 121 122 246 282 5 350 344
219 233 246 250 233 251 244 244 251 249 253 264 273 289 245 224 211 205 195 189 181 172 169 167 163 160 153 150 147 146 138 133 134 141 140 137 174 170 222 259 245 285 297 319
231 234 244 253 239 248 255 259 261 259 263 278 284 280 256 250 225 202 195 190 180 170 166 159 159 156 154 145 138 133 128 126 125 123 127 134 233 242 243 244 271 293 309 317
230 228 245 250 246 245 214 203 239 252 260 275 280 278 255 214 208 190 178 178 173 164 155 154 157 149 135 128 124 128 128 118 112 87 56 22 291 296 293 284 289 293 300 301
197 224 241 242 258 260 214 120 257 256 243 252 282 266 222 206 234 170 146 156 152 148 147 147 147 137 126 122 126 134 126 105 75 54 35 24 3 326 311 309 301 298 287 288
196 210 233 244 251 251 65 101 220 245 336 16 286 252 221 229 314 97 140 152 148 145 145 143 142 136 128 127 130 133 118 94 64 50 37 29 3 312 303 318 311 302 300 306
226 223 225 241 250 247 74 189 251 342 346 323 291 247 230 201 123 137 145 148 146 147 146 145 142 131 130 137 141 135 111 79 66 52 34 5 309 302 22 338 306 298 292 277
243 283 271 262 288 22 344 311 338 325 311 309 292 251 212 187 162 151 152 153 151 152 150 151 146 136 135 143 152 152 128 109 74 312 319 314 309 306 309 290 278 270 271 286
184 238 260 256 249 326 313 307 315 317 312 308 283 244 213 192 168 159 155 156 154 153 154 155 152 148 149 156 164 161 150 169 204 227 242 242 240 247 265 290 296 301 305 307
236 208 234 243 263 269 256 322 334 335 323 315 288 230 208 181 165 160 160 159 158 158 162 164 162 158 157 157 162 170 166 198 230 234 236 247 248 257 271 282 323 315 338 339
222 237 256 276 292 285 296 317 324 322 317 319 262 215 200 182 168 161 156 159 162 163 164 168 170 169 167 168 169 177 196 214 236 239 241 248 255 261 263 260 234 169 270 212